| time (UTC) | temp C | wind direction | speed KPH | gust KPH | rain 1hr cm | rain 24hr cm | rain mn cm | humidity % | barometer mb |
| 20260505093042 | 18 | 163 | 6.4 | 14.5 | 0.00 | 0.00 | 0.00 | 42 | 1017.5 |
| 20260505092527 | 18 | 98 | 6.4 | 14.5 | 0.00 | 0.00 | 0.00 | 42 | 1017.6 |
| 20260505092024 | 18 | 112 | 3.2 | 14.5 | 0.00 | 0.00 | 0.00 | 45 | 1017.5 |
| 20260505091551 | 18 | 164 | 6.4 | 14.5 | 0.00 | 0.00 | 0.00 | 45 | 1017.5 |
| 20260505091025 | 18 | 124 | 4.8 | 12.9 | 0.00 | 0.00 | 0.00 | 45 | 1017.3 |
| 20260505090524 | 18 | 162 | 4.8 | 12.9 | 0.00 | 0.00 | 0.00 | 46 | 1017.5 |
| 20260505090055 | 18 | 174 | 4.8 | 12.9 | 0.00 | 0.00 | 0.00 | 47 | 1017.5 |
| 20260505085524 | 18 | 143 | 6.4 | 12.9 | 0.00 | 0.00 | 0.00 | 44 | 1017.5 |
| 20260505085024 | 18 | 103 | 4.8 | 12.9 | 0.00 | 0.00 | 0.00 | 44 | 1017.5 |
| 20260505084543 | 17 | 112 | 6.4 | 17.7 | 0.00 | 0.00 | 0.00 | 44 | 1017.5 |
| 20260505084026 | 17 | 122 | 4.8 | 17.7 | 0.00 | 0.00 | 0.00 | 43 | 1017.5 |
| 20260505083527 | 17 | 81 | 8.0 | 17.7 | 0.00 | 0.00 | 0.00 | 42 | 1017.5 |
| 20260505083044 | 16 | 190 | 6.4 | 17.7 | 0.00 | 0.00 | 0.00 | 42 | 1017.5 |
| 20260505082527 | 16 | 113 | 6.4 | 16.1 | 0.00 | 0.00 | 0.00 | 44 | 1017.5 |
| 20260505082027 | 16 | 118 | 6.4 | 12.9 | 0.00 | 0.00 | 0.00 | 44 | 1017.5 |
| 20260505081554 | 16 | 117 | 6.4 | 14.5 | 0.00 | 0.00 | 0.00 | 45 | 1017.5 |
| 20260505081027 | 16 | 111 | 4.8 | 14.5 | 0.00 | 0.00 | 0.00 | 45 | 1017.5 |
| 20260505080529 | 16 | 131 | 6.4 | 17.7 | 0.00 | 0.00 | 0.00 | 43 | 1017.4 |
| 20260505080045 | 16 | 140 | 4.8 | 17.7 | 0.00 | 0.00 | 0.00 | 45 | 1017.3 |
| 20260505075526 | 16 | 107 | 4.8 | 16.1 | 0.00 | 0.00 | 0.00 | 44 | 1017.3 |
| 20260505075027 | 16 | 88 | 9.7 | 20.9 | 0.00 | 0.00 | 0.00 | 42 | 1017.3 |
| 20260505074604 | 16 | 113 | 6.4 | 20.9 | 0.00 | 0.00 | 0.00 | 42 | 1017.4 |
| 20260505074027 | 16 | 108 | 6.4 | 19.3 | 0.00 | 0.00 | 0.00 | 43 | 1017.5 |
| 20260505073529 | 16 | 120 | 6.4 | 16.1 | 0.00 | 0.00 | 0.00 | 44 | 1017.4 |
| 20260505073042 | 16 | 134 | 6.4 | 14.5 | 0.00 | 0.00 | 0.00 | 45 | 1017.5 |
| 20260505072526 | 16 | 186 | 4.8 | 14.5 | 0.00 | 0.00 | 0.00 | 46 | 1017.4 |
| 20260505072027 | 16 | 119 | 4.8 | 16.1 | 0.00 | 0.00 | 0.00 | 46 | 1017.5 |
| 20260505071541 | 16 | 89 | 9.7 | 16.1 | 0.00 | 0.00 | 0.00 | 46 | 1017.5 |
| 20260505071026 | 16 | 112 | 8.0 | 17.7 | 0.00 | 0.00 | 0.00 | 47 | 1017.6 |
| 20260505070527 | 15 | 79 | 6.4 | 19.3 | 0.00 | 0.00 | 0.00 | 48 | 1017.6 |
| 20260505070040 | 15 | 117 | 8.0 | 19.3 | 0.00 | 0.00 | 0.00 | 48 | 1017.7 |
| 20260505065526 | 15 | 94 | 4.8 | 11.3 | 0.00 | 0.00 | 0.00 | 49 | 1017.8 |
| 20260505065026 | 15 | 113 | 6.4 | 12.9 | 0.00 | 0.00 | 0.00 | 49 | 1017.9 |
| 20260505064539 | 15 | 73 | 4.8 | 12.9 | 0.00 | 0.00 | 0.00 | 51 | 1017.9 |
| 20260505064028 | 15 | 155 | 4.8 | 12.9 | 0.00 | 0.00 | 0.00 | 50 | 1017.9 |
| 20260505063527 | 15 | 98 | 6.4 | 12.9 | 0.00 | 0.00 | 0.00 | 51 | 1017.9 |
| 20260505063042 | 15 | 83 | 4.8 | 16.1 | 0.00 | 0.00 | 0.00 | 51 | 1017.9 |
| 20260505062526 | 15 | 102 | 4.8 | 16.1 | 0.00 | 0.00 | 0.00 | 53 | 1017.9 |
| 20260505062027 | 15 | 75 | 6.4 | 16.1 | 0.00 | 0.00 | 0.00 | 53 | 1017.8 |
| 20260505061559 | 14 | 129 | 3.2 | 12.9 | 0.00 | 0.00 | 0.00 | 54 | 1017.8 |
| 20260505061026 | 14 | 98 | 4.8 | 12.9 | 0.00 | 0.00 | 0.00 | 54 | 1017.6 |
| 20260505060527 | 14 | 79 | 3.2 | 9.7 | 0.00 | 0.00 | 0.00 | 54 | 1017.7 |
| 20260505060045 | 14 | 127 | 1.6 | 9.7 | 0.00 | 0.00 | 0.00 | 56 | 1017.7 |
| 20260505055527 | 13 | 115 | 1.6 | 8.0 | 0.00 | 0.00 | 0.00 | 56 | 1017.6 |
| 20260505055029 | 13 | 115 | 3.2 | 9.7 | 0.00 | 0.00 | 0.00 | 58 | 1017.5 |
| 20260505054555 | 12 | 108 | 4.8 | 9.7 | 0.00 | 0.00 | 0.00 | 58 | 1017.6 |
| 20260505054027 | 12 | 113 | 1.6 | 6.4 | 0.00 | 0.00 | 0.00 | 60 | 1017.6 |
| 20260505053527 | 12 | 114 | 0.0 | 3.2 | 0.00 | 0.00 | 0.00 | 62 | 1017.6 |
| 20260505053040 | 12 | 103 | 0.0 | 6.4 | 0.00 | 0.00 | 0.00 | 62 | 1017.6 |
| 20260505052526 | 12 | 0 | 0.0 | 6.4 | 0.00 | 0.00 | 0.00 | 63 | 1017.6 |
| 20260505052027 | 11 | 139 | 3.2 | 6.4 | 0.00 | 0.00 | 0.00 | 64 | 1017.6 |
| 20260505051538 | 10 | 127 | 3.2 | 4.8 | 0.00 | 0.00 | 0.00 | 67 | 1017.5 |
| 20260505051055 | 10 | 116 | 1.6 | 4.8 | 0.00 | 0.00 | 0.00 | 68 | 1017.5 |
| 20260505050527 | 10 | 63 | 0.0 | 6.4 | 0.00 | 0.00 | 0.00 | 67 | 1017.5 |
| 20260505041539 | 8 | 106 | 1.6 | 4.8 | 0.00 | 0.00 | 0.00 | 71 | 1017.3 |
| 20260505041025 | 8 | 105 | 0.0 | 3.2 | 0.00 | 0.00 | 0.00 | 72 | 1017.3 |
| 20260505040527 | 8 | 0 | 0.0 | 1.6 | 0.00 | 0.00 | 0.00 | 71 | 1017.2 |
| 20260505040041 | 8 | 120 | 0.0 | 1.6 | 0.00 | 0.00 | 0.00 | 70 | 1017.2 |
| 20260505035529 | 8 | 0 | 0.0 | 4.8 | 0.00 | 0.00 | 0.00 | 69 | 1017.3 |
| 20260505035026 | 9 | 0 | 0.0 | 6.4 | 0.00 | 0.00 | 0.00 | 68 | 1017.4 |
| 20260505034538 | 9 | 106 | 1.6 | 6.4 | 0.00 | 0.00 | 0.00 | 67 | 1017.3 |
| 20260505034029 | 10 | 134 | 1.6 | 6.4 | 0.00 | 0.00 | 0.00 | 67 | 1017.3 |
| 20260505033531 | 9 | 106 | 3.2 | 6.4 | 0.00 | 0.00 | 0.00 | 69 | 1017.3 |
| 20260505033048 | 8 | 122 | 1.6 | 6.4 | 0.00 | 0.00 | 0.00 | 70 | 1017.3 |
| 20260505032526 | 8 | 0 | 0.0 | 6.4 | 0.00 | 0.00 | 0.00 | 69 | 1017.3 |
| 20260505032028 | 9 | 0 | 3.2 | 6.4 | 0.00 | 0.00 | 0.00 | 68 | 1017.3 |
| 20260505031540 | 8 | 94 | 1.6 | 6.4 | 0.00 | 0.00 | 0.00 | 69 | 1017.3 |
| 20260505031027 | 9 | 134 | 1.6 | 6.4 | 0.00 | 0.00 | 0.00 | 68 | 1017.3 |
| 20260505030527 | 9 | 107 | 1.6 | 8.0 | 0.00 | 0.00 | 0.00 | 67 | 1017.3 |
| 20260505030039 | 9 | 105 | 1.6 | 8.0 | 0.00 | 0.00 | 0.00 | 67 | 1017.4 |
| 20260505025530 | 10 | 114 | 1.6 | 8.0 | 0.00 | 0.00 | 0.00 | 65 | 1017.4 |
| 20260505025026 | 10 | 105 | 1.6 | 14.5 | 0.00 | 0.00 | 0.00 | 65 | 1017.3 |
| 20260505024602 | 10 | 105 | 3.2 | 14.5 | 0.00 | 0.00 | 0.00 | 64 | 1017.4 |
| 20260505024027 | 10 | 79 | 3.2 | 9.7 | 0.00 | 0.00 | 0.00 | 65 | 1017.4 |
| 20260505023527 | 10 | 103 | 3.2 | 8.0 | 0.00 | 0.00 | 0.00 | 66 | 1017.5 |
| 20260505023044 | 9 | 119 | 3.2 | 8.0 | 0.00 | 0.00 | 0.00 | 67 | 1017.3 |
| 20260505022527 | 9 | 150 | 1.6 | 4.8 | 0.00 | 0.00 | 0.00 | 67 | 1017.4 |
| 20260505022027 | 10 | 97 | 1.6 | 6.4 | 0.00 | 0.00 | 0.00 | 66 | 1017.5 |
| 20260505021556 | 10 | 165 | 1.6 | 8.0 | 0.00 | 0.00 | 0.00 | 63 | 1017.6 |
| 20260505021027 | 10 | 127 | 3.2 | 11.3 | 0.00 | 0.00 | 0.00 | 62 | 1017.5 |
| 20260505020526 | 11 | 91 | 3.2 | 11.3 | 0.00 | 0.00 | 0.00 | 62 | 1017.5 |
| 20260505020445 | 11 | 107 | 3.2 | 11.3 | 0.00 | 0.00 | 0.00 | 62 | 1017.6 |
| 20260505015530 | 10 | 68 | 3.2 | 8.0 | 0.00 | 0.00 | 0.00 | 63 | 1017.6 |
| 20260505015027 | 10 | 106 | 1.6 | 9.7 | 0.00 | 0.00 | 0.00 | 60 | 1017.7 |
| 20260505014539 | 11 | 0 | 0.0 | 14.5 | 0.00 | 0.00 | 0.00 | 59 | 1017.7 |
| 20260505014029 | 11 | 92 | 4.8 | 14.5 | 0.00 | 0.00 | 0.00 | 57 | 1017.7 |
| 20260505013527 | 11 | 72 | 6.4 | 14.5 | 0.00 | 0.00 | 0.00 | 58 | 1017.7 |
| 20260505013045 | 11 | 100 | 8.0 | 14.5 | 0.00 | 0.00 | 0.00 | 58 | 1017.7 |
| 20260505012526 | 11 | 93 | 8.0 | 12.9 | 0.00 | 0.00 | 0.00 | 58 | 1017.6 |
| 20260505012030 | 11 | 68 | 8.0 | 12.9 | 0.00 | 0.00 | 0.00 | 58 | 1017.7 |
| 20260505011553 | 11 | 103 | 8.0 | 14.5 | 0.00 | 0.00 | 0.00 | 59 | 1017.8 |
| 20260505011027 | 11 | 90 | 6.4 | 14.5 | 0.00 | 0.00 | 0.00 | 59 | 1017.7 |
| 20260505010530 | 11 | 60 | 6.4 | 14.5 | 0.00 | 0.00 | 0.00 | 59 | 1017.8 |
| 20260505010043 | 11 | 86 | 3.2 | 9.7 | 0.00 | 0.00 | 0.00 | 61 | 1017.9 |
| 20260505005527 | 11 | 134 | 3.2 | 9.7 | 0.00 | 0.00 | 0.00 | 61 | 1017.9 |
| 20260505005027 | 11 | 102 | 4.8 | 9.7 | 0.00 | 0.00 | 0.00 | 61 | 1017.8 |
| 20260505004544 | 10 | 101 | 3.2 | 9.7 | 0.00 | 0.00 | 0.00 | 62 | 1017.9 |
| 20260505004027 | 10 | 107 | 1.6 | 9.7 | 0.00 | 0.00 | 0.00 | 61 | 1017.9 |
| 20260505003526 | 10 | 103 | 4.8 | 9.7 | 0.00 | 0.00 | 0.00 | 62 | 1018.0 |
| 20260505003038 | 10 | 100 | 3.2 | 6.4 | 0.00 | 0.00 | 0.00 | 62 | 1018.1 |
| 20260505002526 | 10 | 83 | 1.6 | 6.4 | 0.00 | 0.00 | 0.00 | 63 | 1018.2 |
| 20260505002028 | 10 | 75 | 1.6 | 6.4 | 0.00 | 0.00 | 0.00 | 63 | 1018.2 |
| 20260505001539 | 10 | 103 | 1.6 | 8.0 | 0.00 | 0.00 | 0.00 | 64 | 1018.3 |
| 20260505001026 | 10 | 91 | 1.6 | 8.0 | 0.00 | 0.00 | 0.00 | 64 | 1018.1 |
| 20260505000527 | 10 | 115 | 4.8 | 8.0 | 0.00 | 0.00 | 0.00 | 64 | 1018.1 |
| 20260505000046 | 10 | 106 | 1.6 | 8.0 | 0.00 | 0.00 | 0.00 | 64 | 1018.1 |
| 20260504235527 | 10 | 108 | 3.2 | 8.0 | 0.00 | 0.00 | 0.00 | 64 | 1018.2 |
| 20260504235027 | 10 | 129 | 1.6 | 8.0 | 0.00 | 0.00 | 0.00 | 63 | 1018.2 |
| 20260504234542 | 11 | 129 | 1.6 | 11.3 | 0.00 | 0.00 | 0.00 | 61 | 1018.2 |
| 20260504234027 | 11 | 115 | 4.8 | 12.9 | 0.00 | 0.00 | 0.00 | 59 | 1018.2 |
| 20260504233527 | 11 | 70 | 8.0 | 14.5 | 0.00 | 0.00 | 0.00 | 59 | 1018.1 |
| 20260504233054 | 11 | 58 | 8.0 | 17.7 | 0.00 | 0.00 | 0.00 | 59 | 1018.2 |
| 20260504232527 | 11 | 65 | 9.7 | 17.7 | 0.00 | 0.00 | 0.00 | 59 | 1018.2 |
| 20260504232026 | 11 | 58 | 8.0 | 16.1 | 0.00 | 0.00 | 0.00 | 59 | 1018.2 |
| 20260504231538 | 12 | 5 | 8.0 | 16.1 | 0.00 | 0.00 | 0.00 | 59 | 1018.2 |
| 20260504231026 | 12 | 83 | 8.0 | 14.5 | 0.00 | 0.00 | 0.00 | 59 | 1018.2 |
| 20260504230526 | 12 | 41 | 6.4 | 14.5 | 0.00 | 0.00 | 0.00 | 59 | 1018.3 |
| 20260504230039 | 12 | 84 | 8.0 | 16.1 | 0.00 | 0.00 | 0.00 | 59 | 1018.2 |
| 20260504225530 | 12 | 68 | 9.7 | 16.1 | 0.00 | 0.00 | 0.00 | 58 | 1018.3 |
| 20260504225026 | 12 | 81 | 8.0 | 14.5 | 0.00 | 0.00 | 0.00 | 58 | 1018.4 |
| 20260504224538 | 12 | 79 | 6.4 | 14.5 | 0.00 | 0.00 | 0.00 | 57 | 1018.5 |
| 20260504224026 | 12 | 86 | 6.4 | 14.5 | 0.00 | 0.00 | 0.00 | 57 | 1018.5 |
| 20260504223524 | 12 | 86 | 6.4 | 14.5 | 0.00 | 0.00 | 0.00 | 57 | 1018.5 |
| 20260504223044 | 12 | 108 | 6.4 | 16.1 | 0.00 | 0.00 | 0.00 | 56 | 1018.5 |
| 20260504222526 | 12 | 80 | 6.4 | 16.1 | 0.00 | 0.00 | 0.00 | 55 | 1018.5 |
| 20260504222023 | 12 | 70 | 6.4 | 11.3 | 0.00 | 0.00 | 0.00 | 55 | 1018.7 |
| 20260504221546 | 12 | 75 | 6.4 | 9.7 | 0.00 | 0.00 | 0.00 | 55 | 1018.6 |
| 20260504221027 | 12 | 70 | 4.8 | 9.7 | 0.00 | 0.00 | 0.00 | 55 | 1018.8 |
| 20260504220526 | 12 | 77 | 4.8 | 9.7 | 0.00 | 0.00 | 0.00 | 55 | 1018.8 |
| 20260504220056 | 12 | 83 | 4.8 | 12.9 | 0.00 | 0.00 | 0.00 | 55 | 1018.7 |
| 20260504215524 | 12 | 71 | 4.8 | 12.9 | 0.00 | 0.00 | 0.00 | 55 | 1018.6 |
| 20260504215024 | 12 | 89 | 6.4 | 12.9 | 0.00 | 0.00 | 0.00 | 55 | 1018.5 |
| 20260504214542 | 12 | 64 | 6.4 | 14.5 | 0.00 | 0.00 | 0.00 | 55 | 1018.5 |
| 20260504214026 | 12 | 82 | 6.4 | 14.5 | 0.00 | 0.00 | 0.00 | 55 | 1018.4 |
| 20260504213525 | 12 | 82 | 6.4 | 12.9 | 0.00 | 0.00 | 0.00 | 55 | 1018.5 |
| 20260504213045 | 12 | 79 | 6.4 | 14.5 | 0.00 | 0.00 | 0.00 | 54 | 1018.4 |
| 20260504212527 | 12 | 70 | 8.0 | 14.5 | 0.00 | 0.00 | 0.00 | 54 | 1018.4 |
| 20260504212027 | 12 | 94 | 6.4 | 12.9 | 0.00 | 0.00 | 0.00 | 54 | 1018.4 |
| 20260504211541 | 12 | 77 | 4.8 | 11.3 | 0.00 | 0.00 | 0.00 | 55 | 1018.5 |
| 20260504211027 | 12 | 72 | 4.8 | 11.3 | 0.00 | 0.00 | 0.00 | 55 | 1018.5 |
| 20260504210527 | 12 | 89 | 4.8 | 11.3 | 0.00 | 0.00 | 0.00 | 55 | 1018.6 |
| 20260504210041 | 12 | 77 | 4.8 | 9.7 | 0.00 | 0.00 | 0.00 | 56 | 1018.5 |
| 20260504205527 | 12 | 89 | 3.2 | 9.7 | 0.00 | 0.00 | 0.00 | 57 | 1018.6 |
| 20260504205027 | 12 | 103 | 3.2 | 9.7 | 0.00 | 0.00 | 0.00 | 56 | 1018.6 |
| 20260504204556 | 12 | 86 | 3.2 | 9.7 | 0.00 | 0.00 | 0.00 | 56 | 1018.6 |
| 20260504204027 | 12 | 60 | 3.2 | 9.7 | 0.00 | 0.00 | 0.00 | 56 | 1018.6 |
| 20260504203528 | 12 | 45 | 4.8 | 8.0 | 0.00 | 0.00 | 0.00 | 57 | 1018.6 |
| 20260504203038 | 12 | 72 | 3.2 | 6.4 | 0.00 | 0.00 | 0.00 | 60 | 1018.6 |
| 20260504202528 | 11 | 98 | 1.6 | 4.8 | 0.00 | 0.00 | 0.00 | 64 | 1018.7 |
| 20260504202027 | 11 | 91 | 0.0 | 3.2 | 0.00 | 0.00 | 0.00 | 69 | 1018.7 |
| 20260504201539 | 11 | 118 | 0.0 | 3.2 | 0.00 | 0.00 | 0.00 | 72 | 1018.6 |
| 20260504201027 | 10 | 0 | 0.0 | 0.0 | 0.00 | 0.00 | 0.00 | 74 | 1018.6 |
| 20260504200528 | 10 | 0 | 0.0 | 0.0 | 0.00 | 0.00 | 0.00 | 74 | 1018.6 |
| 20260504200043 | 10 | 0 | 0.0 | 0.0 | 0.00 | 0.00 | 0.00 | 74 | 1018.6 |
| 20260504195527 | 10 | 0 | 0.0 | 0.0 | 0.00 | 0.00 | 0.00 | 73 | 1018.5 |
| 20260504195027 | 10 | 0 | 0.0 | 0.0 | 0.00 | 0.00 | 0.00 | 73 | 1018.6 |
| 20260504194544 | 10 | 0 | 0.0 | 0.0 | 0.00 | 0.00 | 0.00 | 73 | 1018.6 |
| 20260504194024 | 10 | 0 | 0.0 | 0.0 | 0.00 | 0.00 | 0.00 | 72 | 1018.5 |
| 20260504193527 | 10 | 0 | 0.0 | 0.0 | 0.00 | 0.00 | 0.00 | 72 | 1018.5 |
| 20260504193039 | 11 | 0 | 0.0 | 0.0 | 0.00 | 0.00 | 0.00 | 71 | 1018.4 |
| 20260504192526 | 11 | 0 | 0.0 | 0.0 | 0.00 | 0.00 | 0.00 | 70 | 1018.4 |
| 20260504192026 | 11 | 0 | 0.0 | 0.0 | 0.00 | 0.00 | 0.00 | 70 | 1018.3 |
| 20260504191541 | 11 | 0 | 0.0 | 0.0 | 0.00 | 0.00 | 0.00 | 70 | 1018.3 |
| 20260504191030 | 11 | 0 | 0.0 | 0.0 | 0.00 | 0.00 | 0.00 | 70 | 1018.3 |
| 20260504190529 | 11 | 0 | 0.0 | 0.0 | 0.00 | 0.00 | 0.00 | 70 | 1018.2 |
| 20260504190039 | 11 | 0 | 0.0 | 0.0 | 0.00 | 0.00 | 0.00 | 70 | 1018.2 |
| 20260504185527 | 11 | 0 | 0.0 | 0.0 | 0.00 | 0.00 | 0.00 | 69 | 1018.3 |
| 20260504185028 | 11 | 0 | 0.0 | 0.0 | 0.00 | 0.00 | 0.00 | 68 | 1018.2 |
| 20260504184541 | 12 | 0 | 0.0 | 0.0 | 0.00 | 0.00 | 0.00 | 67 | 1018.2 |
| 20260504184028 | 12 | 0 | 0.0 | 0.0 | 0.00 | 0.00 | 0.00 | 66 | 1018.1 |
| 20260504183528 | 12 | 0 | 0.0 | 0.0 | 0.00 | 0.00 | 0.00 | 66 | 1018.0 |
| 20260504183040 | 12 | 0 | 0.0 | 0.0 | 0.00 | 0.00 | 0.00 | 64 | 1018.1 |
| 20260504182527 | 12 | 0 | 0.0 | 0.0 | 0.00 | 0.00 | 0.00 | 62 | 1018.0 |
| 20260504182026 | 13 | 0 | 0.0 | 0.0 | 0.00 | 0.00 | 0.00 | 61 | 1018.0 |
| 20260504181543 | 13 | 0 | 0.0 | 0.0 | 0.00 | 0.00 | 0.00 | 61 | 1017.9 |
| 20260504181029 | 13 | 0 | 0.0 | 0.0 | 0.00 | 0.00 | 0.00 | 60 | 1018.0 |
| 20260504180527 | 13 | 0 | 0.0 | 0.0 | 0.00 | 0.00 | 0.00 | 59 | 1018.0 |
| 20260504180039 | 13 | 0 | 0.0 | 0.0 | 0.00 | 0.00 | 0.00 | 59 | 1017.9 |
| 20260504175526 | 14 | 0 | 0.0 | 0.0 | 0.00 | 0.00 | 0.00 | 58 | 1017.9 |
| 20260504175029 | 14 | 0 | 0.0 | 0.0 | 0.00 | 0.00 | 0.00 | 57 | 1017.9 |
| 20260504174538 | 15 | 0 | 0.0 | 0.0 | 0.00 | 0.00 | 0.00 | 54 | 1017.9 |
| 20260504174026 | 15 | 0 | 0.0 | 0.0 | 0.00 | 0.00 | 0.00 | 52 | 1017.8 |
| 20260504173526 | 16 | 0 | 0.0 | 0.0 | 0.00 | 0.00 | 0.00 | 52 | 1017.8 |
| 20260504173039 | 16 | 0 | 0.0 | 3.2 | 0.00 | 0.00 | 0.00 | 51 | 1017.8 |
| 20260504172528 | 15 | 0 | 0.0 | 4.8 | 0.00 | 0.00 | 0.00 | 52 | 1017.8 |
| 20260504172027 | 15 | 269 | 0.0 | 6.4 | 0.00 | 0.00 | 0.00 | 52 | 1017.7 |
| 20260504171539 | 16 | 283 | 1.6 | 6.4 | 0.00 | 0.00 | 0.00 | 51 | 1017.6 |
| 20260504171028 | 16 | 289 | 0.0 | 6.4 | 0.00 | 0.00 | 0.00 | 50 | 1017.7 |
| 20260504170527 | 16 | 0 | 1.6 | 6.4 | 0.00 | 0.00 | 0.00 | 49 | 1017.7 |
| 20260504151027 | 18 | 246 | 6.4 | 19.3 | 0.00 | 0.00 | 0.00 | 43 | 1017.9 |
| 20260504150529 | 18 | 298 | 6.4 | 19.3 | 0.00 | 0.00 | 0.00 | 43 | 1017.9 |
| 20260504141026 | 18 | 264 | 8.0 | 19.3 | 0.00 | 0.00 | 0.00 | 43 | 1017.9 |
| 20260504140527 | 18 | 289 | 9.7 | 17.7 | 0.00 | 0.00 | 0.00 | 42 | 1018.0 |
| 20260504130524 | 18 | 248 | 9.7 | 22.5 | 0.00 | 0.00 | 0.00 | 45 | 1018.4 |
| 20260504110527 | 18 | 283 | 6.4 | 19.3 | 0.00 | 0.00 | 0.00 | 43 | 1019.1 |
| 20260504100528 | 18 | 285 | 4.8 | 12.9 | 0.00 | 0.00 | 0.00 | 46 | 1019.7 |